Location: Hillsman's Observatory
(38.8566°N, 93.9398°W)
Time: 03:12:57
(UTC-06:00)

Tiangong 1 - Visible Passes

Search period start: 22 November 2017 00:00
Search period end: 02 December 2017 00:00
Orbit: 284 x 308 km, 42.8° (Epoch: 21 November)

Date Brightness Start Highest point End Pass type
(mag) Time Alt. Az. Time Alt. Az. Time Alt. Az.
23 Nov 2.7 18:07:41 10° S 18:09:19 15° SE 18:09:30 15° SE visible
24 Nov 1.6 18:13:26 10° SW 18:15:47 31° SSE 18:15:58 30° SE visible
25 Nov 0.5 18:19:38 10° WSW 18:22:12 66° SSE 18:22:16 65° SE visible
26 Nov 0.8 18:25:58 10° WSW 18:28:22 62° NW 18:28:22 62° NW visible
27 Nov 1.9 18:32:21 10° W 18:34:19 35° NW 18:34:19 35° NW visible
28 Nov 2.6 18:38:38 10° WNW 18:40:07 24° NW 18:40:07 24° NW visible
29 Nov 3.1 18:44:46 10° WNW 18:45:47 19° NW 18:45:47 19° NW visible
30 Nov 3.5 18:50:40 10° WNW 18:51:21 15° NW 18:51:21 15° NW visible
01 Dec 1.6 17:21:31 10° WNW 17:23:54 32° N 17:26:18 10° ENE visible
01 Dec 3.7 18:56:23 10° WNW 18:56:49 13° WNW 18:56:49 13° WNW visible
